Weather History for KAAA - January, 2014

Change the Weather History Date:

Friday, January 10, 2014

  Actual Average (KSPI) Record (KSPI)
Temperature  
Mean Temperature 36 °F 26 °F  
Max Temperature 41 °F 35 °F 61 °F (1975)
Min Temperature 32 °F 19 °F -18 °F (1982)
Degree Days  
Heating Degree Days 28 38  
Month to date heating degree days 380  
Since 1 July heating degree days 2520  
Cooling Degree Days 0 0  
Month to date cooling degree days 0  
Year to date cooling degree days 0  
Moisture  
Dew Point 36 °F    
Average Humidity 97    
Maximum Humidity 99    
Minimum Humidity 91    
Precipitation  
Precipitation 0.00 in 0.06 in 2.12 in (1975)
Month to date precipitation 0.65  
Year to date precipitation 0.65  
Snow  
Snow 0.00 in 0.20 in 2.50 in (1883)
Month to date snowfall 2.1  
Since 1 July snowfall 8.3  
Snow Depth -    
Sea Level Pressure  
Sea Level Pressure 29.87 in    
Wind  
Wind Speed 10 mph (South)    
Max Wind Speed 17 mph    
Max Gust Speed 24 mph    
Visibility 4 miles    
Events Fog , Rain    
T = Trace of Precipitation, MM = Missing Value Source: NWS Daily Summary

Daily Weather History Graph

Daily Weather History Graph

Search for Another Location

Airport or City:

Trip Planner

Search our weather history database for the weather conditions in past years. The results will help you decide how hot, cold, wet, or windy it might be!

Date:

Astronomy

Jan. 10, 2014 Rise Set
Actual Time 7:19 AM CST 4:50 PM CST
Civil Twilight 6:49 AM CST 5:21 PM CST
Nautical Twilight 6:15 AM CST 5:54 PM CST
Astronomical Twilight 5:42 AM CST 6:27 PM CST
Moon 12:54 PM CST (1/10) 2:26 AM CST (1/10)
Length of Visible Light 10h 31m
Length of Day
9h 31m
Waxing Gibbous, 75% of the Moon is Illuminated
Jan 10
Waxing Gibbous
Jan 15
Full
Jan 23
Last Quarter
Jan 30
New
Feb 6
First Quarter

Hourly Weather History & Observations

Time (CST) Temp. Windchill Dew Point Humidity Pressure Visibility Wind Dir Wind Speed Gust Speed Precip Events Conditions
12:15 AM 32.9 °F 25.3 °F 32.0 °F 96% 30.16 in 4.0 mi South 9.2 mph - N/A   Overcast
12:35 AM 32.9 °F 25.9 °F 32.0 °F 96% 30.16 in 3.0 mi South 8.1 mph - N/A   Overcast
12:55 AM 32.9 °F 26.7 °F 32.2 °F 97% 30.15 in 3.0 mi South 6.9 mph - N/A   Overcast
1:15 AM 32.9 °F 25.9 °F 32.2 °F 97% 30.14 in 2.0 mi South 8.1 mph - N/A   Overcast
1:35 AM 32.9 °F 25.9 °F 32.2 °F 97% 30.14 in 2.5 mi South 8.1 mph - N/A   Overcast
1:55 AM 33.1 °F 25.5 °F 32.5 °F 98% 30.14 in 3.0 mi South 9.2 mph - N/A   Overcast
2:15 AM 33.1 °F 26.9 °F 32.5 °F 98% 30.14 in 3.0 mi South 6.9 mph - N/A   Overcast
2:35 AM 33.1 °F 28.7 °F 32.4 °F 97% 30.13 in 3.0 mi South 4.6 mph - N/A   Overcast
2:55 AM 33.1 °F 28.7 °F 32.4 °F 97% 30.13 in 4.0 mi South 4.6 mph - N/A   Overcast
3:15 AM 33.1 °F 26.9 °F 32.4 °F 97% 30.12 in 2.0 mi South 6.9 mph - N/A   Overcast
3:35 AM 33.1 °F 26.9 °F 32.5 °F 98% 30.10 in 2.5 mi SSE 6.9 mph - N/A   Overcast
3:55 AM 33.3 °F 26.4 °F 32.5 °F 97% 30.10 in 5.0 mi South 8.1 mph - N/A   Overcast
4:15 AM 33.3 °F 27.1 °F 32.9 °F 99% 30.09 in 4.0 mi South 6.9 mph - N/A   Overcast
4:35 AM 33.4 °F 25.4 °F 32.9 °F 98% 30.09 in 1.8 mi South 10.4 mph - N/A   Overcast
4:55 AM 33.4 °F 25.9 °F 32.9 °F 98% 30.08 in 0.8 mi South 9.2 mph - N/A   Overcast
5:15 AM 33.8 °F 25.8 °F 33.1 °F 97% 30.08 in 0.5 mi South 10.4 mph - N/A Fog Fog
5:35 AM 33.8 °F 25.3 °F 33.1 °F 97% 30.07 in 1.0 mi South 11.5 mph - N/A   Overcast
5:55 AM 33.8 °F 26.4 °F 33.3 °F 98% 30.06 in 1.8 mi South 9.2 mph - N/A   Overcast
6:15 AM 33.8 °F 27.7 °F 33.3 °F 98% 30.06 in 2.5 mi SSE 6.9 mph - N/A   Overcast
6:35 AM 33.8 °F 26.4 °F 33.3 °F 98% 30.05 in 2.5 mi SSE 9.2 mph - N/A   Overcast
6:55 AM 33.8 °F 25.8 °F 33.4 °F 99% 30.05 in 3.0 mi SSE 10.4 mph - N/A   Overcast
7:15 AM 34.0 °F 27.2 °F 33.8 °F 99% 30.04 in 4.0 mi SSE 8.1 mph - N/A   Overcast
7:35 AM 34.0 °F 26.0 °F 33.8 °F 99% 30.03 in 2.5 mi SSE 10.4 mph - N/A   Overcast
7:55 AM 34.0 °F 26.0 °F 33.8 °F 99% 30.03 in 1.5 mi SSE 10.4 mph - N/A   Overcast
8:15 AM 34.2 °F 25.2 °F 33.8 °F 99% 30.02 in 1.8 mi SSE 12.7 mph - N/A   Overcast
8:35 AM 34.3 °F 25.9 °F 33.8 °F 98% 30.02 in 1.8 mi SSE 11.5 mph - N/A   Overcast
8:55 AM 34.7 °F 25.9 °F 34.0 °F 97% 30.01 in 2.0 mi SSE 12.7 mph 16.1 mph N/A   Overcast
9:15 AM 34.7 °F 26.4 °F 34.2 °F 98% 30.01 in 5.0 mi SSE 11.5 mph - N/A   Overcast
9:35 AM 35.1 °F 25.5 °F 34.3 °F 97% 29.99 in 5.0 mi SSE 15.0 mph - N/A   Overcast
9:55 AM 35.8 °F 27.8 °F 34.9 °F 97% 29.98 in 5.0 mi SSE 11.5 mph - N/A   Overcast
10:15 AM 36.7 °F 28.9 °F 35.2 °F 95% 29.97 in 5.0 mi SSE 11.5 mph 19.6 mph N/A   Overcast
10:35 AM 36.9 °F 29.1 °F 34.7 °F 92% 29.95 in 5.0 mi SE 11.5 mph 20.7 mph N/A   Overcast
10:55 AM 36.7 °F 29.4 °F 34.3 °F 91% 29.92 in 7.0 mi SE 10.4 mph 16.1 mph N/A   Overcast
11:15 AM 36.7 °F 28.0 °F 34.7 °F 93% 29.90 in 7.0 mi SSE 13.8 mph - N/A   Overcast
2:55 PM - - - N/A% 29.74 in - South 16.1 mph - N/A   Unknown
3:15 PM 39.9 °F 31.8 °F 39.0 °F 97% 29.73 in 2.0 mi South 15.0 mph 24.2 mph N/A   Unknown
3:35 PM 40.1 °F 32.4 °F 39.2 °F 97% 29.72 in 2.5 mi South 13.8 mph 21.9 mph N/A Rain Light Rain
3:55 PM 39.6 °F 32.1 °F 38.7 °F 97% 29.70 in 5.0 mi SSE 12.7 mph 18.4 mph N/A Rain Light Rain
4:15 PM 39.4 °F 31.4 °F 38.5 °F 97% 29.68 in 5.0 mi SSE 13.8 mph 19.6 mph N/A Rain Light Rain
4:35 PM 40.1 °F 32.0 °F 39.2 °F 97% 29.66 in 5.0 mi SSE 15.0 mph 18.4 mph N/A Rain Rain
4:55 PM 40.5 °F 34.6 °F 39.7 °F 97% 29.68 in 5.0 mi SSW 9.2 mph 17.3 mph N/A Rain Rain
5:15 PM 40.6 °F 32.0 °F 40.1 °F 98% 29.67 in 5.0 mi South 17.3 mph - N/A Rain Rain
5:35 PM 40.5 °F 32.8 °F 39.6 °F 97% 29.66 in 5.0 mi South 13.8 mph - N/A Rain Rain
5:55 PM 40.1 °F 32.0 °F 39.4 °F 97% 29.66 in 5.0 mi South 15.0 mph 21.9 mph N/A Rain Light Rain
6:15 PM 40.1 °F 31.3 °F 39.2 °F 97% 29.62 in 7.0 mi SSE 17.3 mph 20.7 mph N/A Rain Rain
6:35 PM 40.6 °F 32.3 °F 39.9 °F 97% 29.63 in 10.0 mi South 16.1 mph 24.2 mph N/A Rain Light Rain
6:55 PM 41.0 °F 33.5 °F 40.1 °F 97% 29.63 in 10.0 mi South 13.8 mph 18.4 mph N/A   Light Drizzle
7:15 PM 40.3 °F 32.6 °F 39.4 °F 97% 29.63 in 10.0 mi South 13.8 mph - N/A   Light Drizzle
7:35 PM 40.1 °F 33.2 °F 39.2 °F 97% 29.62 in 7.0 mi South 11.5 mph - N/A   Overcast
7:55 PM 40.1 °F 33.2 °F 39.4 °F 97% 29.62 in 7.0 mi South 11.5 mph - N/A   Overcast
8:15 PM 40.1 °F 33.6 °F 39.4 °F 97% 29.60 in 5.0 mi South 10.4 mph - N/A   Overcast
8:35 PM 40.1 °F 32.7 °F 39.4 °F 97% 29.60 in 5.0 mi South 12.7 mph - N/A   Overcast
8:55 PM 40.3 °F 33.0 °F 39.6 °F 97% 29.59 in 5.0 mi South 12.7 mph - N/A   Overcast
9:15 PM 40.3 °F 33.0 °F 39.6 °F 97% 29.59 in 4.0 mi South 12.7 mph - N/A   Overcast
9:35 PM 40.5 °F 32.8 °F 39.7 °F 97% 29.59 in 3.0 mi South 13.8 mph - N/A   Overcast
9:55 PM 40.5 °F 33.2 °F 39.7 °F 97% 29.58 in 2.5 mi South 12.7 mph - N/A Rain Light Rain
10:15 PM 40.5 °F 33.6 °F 39.7 °F 97% 29.57 in 1.2 mi South 11.5 mph - N/A Rain Rain
10:35 PM 41.2 °F 36.6 °F 40.5 °F 97% 29.57 in 2.5 mi South 6.9 mph - N/A Rain Light Rain
10:55 PM 41.2 °F 36.0 °F 40.5 °F 97% 29.56 in 2.5 mi SSW 8.1 mph - N/A   Overcast
11:15 PM 41.2 °F 36.6 °F 40.5 °F 97% 29.55 in 3.0 mi SSW 6.9 mph - N/A   Overcast
11:35 PM 41.2 °F 35.5 °F 40.5 °F 97% 29.54 in 3.0 mi South 9.2 mph - N/A Rain Light Rain
11:55 PM 41.0 °F 37.1 °F 40.5 °F 98% 29.54 in 3.0 mi South 5.8 mph - N/A Rain Light Rain